sat.trackr.live / text

‹ back to catalog

STARLINK-4313

NORAD 53064 · 2022-077X

PAYLOAD ACTIVE UNKNOWN

§ Identity

Operator
Country
US
Launch date
2022-07-11
Launch site
AFWTR
Launch vehicle
Mass (kg)
RCS (m²)

Purposes: comms

External: N2YO · Heavens-Above · Gunter

§ Orbital elements

Epoch: 2026-09-19T22:42:33.974784Z

Period
93.90 min
Inclination
97.2853°
Eccentricity
0.0001360
Mean motion
15.33465216 rev/d
Perigee alt
464.6 km
Apogee alt
466.4 km
Semi-major
6,843.6 km
B*
-2.3119e-4
RAAN
78.6478°
Arg perigee
93.7006°
Mean anomaly
266.4392°
Rev number
23,026

§ Raw data

STARLINK-43131 53064U 22077X   26262.94622656 -.00007536  00000+0 -23119-3 0  99952 53064  97.2853  78.6478 0001360  93.7006 266.4392 15.33465216230260

JSON: /api/v1/satellites/53064 · /tle

For live sub-satellite position, see the globe view (requires WebGL).

§ Visibility from observer

Set your observer location to see the next 7 days of passes ≥ 10°. The values pass through the URL so the page stays shareable.

No JS? Fill the form by hand. The geolocation button needs JavaScript.